Date String (YYYY-MM-DD hh:mm:ss) UTC,Instrument flags,Ambient pressure (hPa),Sample flow (lpm),Bypass flow (lpm),Sample temperature (°C),Ambient temperature (°C),ASC tube jacket temperature (°C),LED temperature (°C),Box temperature (°C),Sample RH (%),Span deviation,Mass concentration (μg/m³),Mass concentration (μg/m³),Mass concentration (μg/m³)
DateTimeUTC,F1_M11,P_M11,Q1_M11,Q2_M11,T1_M11,T2_M11,T3_M11,T4_M11,T5_M11,U1_M11,ZSPAN_M11,X0_M11,X2_M11,X1_M11
2022-05-17 09:00:00,,0822.0,4.99,0.00,30.1,28.7,00.0,39.2,31.8,12.3,0000.0,0008.86,0003.99,0003.13
2022-05-17 09:01:00,,0821.9,5.00,0.00,30.1,28.7,00.0,39.2,31.8,12.3,0000.0,0008.98,0004.00,0003.14
2022-05-17 09:02:00,,0821.9,5.01,0.00,30.1,28.7,00.0,39.2,31.8,12.3,0000.0,0009.13,0003.97,0003.14
2022-05-17 09:03:00,,0821.9,5.00,0.00,30.1,28.7,00.0,39.2,31.8,12.2,0000.0,0009.13,0004.02,0003.14
2022-05-17 09:04:00,,0821.8,4.99,0.00,30.1,28.7,00.0,39.2,31.7,12.2,0000.0,0009.09,0004.03,0003.14
2022-05-17 09:05:00,,0822.1,5.01,0.00,30.1,28.7,00.0,39.2,31.8,12.2,0000.0,0009.09,0004.05,0003.15
2022-05-17 09:06:00,,0821.9,4.99,0.00,30.1,28.7,00.0,39.2,31.8,12.1,0000.0,0009.11,0004.06,0003.15
2022-05-17 09:07:00,,0821.8,4.98,0.00,30.1,28.7,00.0,39.2,31.7,12.2,0000.0,0009.48,0004.07,0003.16
2022-05-17 09:08:00,,0821.9,5.00,0.00,30.0,28.7,00.0,39.1,31.7,11.9,0000.0,0009.81,0004.09,0003.16
2022-05-17 09:09:00,,0822.0,5.01,0.00,30.0,28.6,00.0,39.1,31.7,11.9,0000.0,0009.94,0004.13,0003.17
2022-05-17 09:10:00,,0822.0,5.00,0.00,30.0,28.6,00.0,39.1,31.7,12.1,0000.0,0010.55,0004.11,0003.17
2022-05-17 09:11:00,,0822.0,5.00,0.00,30.0,28.6,00.0,39.1,31.8,11.9,0000.0,0010.79,0004.13,0003.18
2022-05-17 09:12:00,,0821.9,4.99,0.00,30.1,28.6,00.0,39.2,31.8,11.9,0000.0,0010.65,0004.07,0003.17
2022-05-17 09:13:00,,0821.8,5.01,0.00,30.1,28.6,00.0,39.1,31.8,12.0,0000.0,0010.30,0004.05,0003.16
2022-05-17 09:14:00,,0821.9,5.00,0.00,30.1,28.6,00.0,39.1,31.8,11.8,0000.0,0010.68,0004.01,0003.16
2022-05-17 09:15:00,,0821.7,5.01,0.00,30.1,28.6,00.0,39.1,31.8,11.9,0000.0,0010.66,0004.01,0003.15
2022-05-17 09:16:00,,0821.8,5.00,0.00,30.1,28.6,00.0,39.1,31.8,11.8,0000.0,0010.75,0004.02,0003.16
2022-05-17 09:17:00,,0821.8,5.00,0.00,30.1,28.6,00.0,39.1,31.8,11.8,0000.0,0011.20,0004.06,0003.16
2022-05-17 09:18:00,,0821.8,4.99,0.00,30.1,28.6,00.0,39.1,31.8,12.0,0000.0,0011.51,0004.04,0003.15
2022-05-17 09:19:00,,0821.8,5.00,0.00,30.1,28.6,00.0,39.1,31.7,11.9,0000.0,0011.17,0004.02,0003.15
2022-05-17 09:20:00,,0821.8,5.01,0.00,30.0,28.6,00.0,39.1,31.7,12.2,0000.0,0011.02,0003.98,0003.14
2022-05-17 09:21:00,,0821.8,4.99,0.00,30.0,28.6,00.0,39.1,31.7,12.0,0000.0,0010.43,0003.99,0003.13
2022-05-17 09:22:00,,0821.8,5.01,0.00,30.0,28.6,00.0,39.1,31.7,12.0,0000.0,0010.05,0003.94,0003.12
2022-05-17 09:23:00,,0821.8,5.01,0.00,30.0,28.6,00.0,39.1,31.7,11.9,0000.0,0010.04,0003.97,0003.12
2022-05-17 09:24:00,,0821.8,5.00,0.00,30.0,28.6,00.0,39.1,31.7,11.9,0000.0,0009.98,0003.97,0003.12
2022-05-17 09:25:00,,0821.8,4.99,0.00,30.0,28.6,00.0,39.1,31.7,11.9,0000.0,0009.20,0003.96,0003.11
2022-05-17 09:26:00,,0821.8,4.99,0.00,30.0,28.6,00.0,39.1,31.6,11.8,0000.0,0009.33,0003.98,0003.12
2022-05-17 09:27:00,,0821.7,5.00,0.00,30.0,28.6,00.0,39.1,31.6,12.1,0000.0,0009.22,0003.97,0003.12
2022-05-17 09:28:00,,0821.7,5.01,0.00,30.0,28.5,00.0,39.1,31.6,12.2,0000.0,0009.04,0003.92,0003.12
2022-05-17 09:29:00,,0821.7,5.00,0.00,30.0,28.5,00.0,39.1,31.6,12.3,0000.0,0008.68,0003.90,0003.12
2022-05-17 09:30:00,,0821.7,5.00,0.00,30.0,28.5,00.0,39.1,31.6,12.3,0000.0,0008.61,0003.93,0003.13
2022-05-17 09:31:00,,0821.7,5.00,0.00,30.0,28.5,00.0,39.1,31.6,12.3,0000.0,0008.74,0003.97,0003.13
2022-05-17 09:32:00,,0821.7,5.00,0.00,30.0,28.5,00.0,39.0,31.6,12.3,0000.0,0008.87,0003.97,0003.13
2022-05-17 09:33:00,,0821.8,4.99,0.00,29.9,28.5,00.0,39.0,31.6,12.4,0000.0,0008.94,0004.02,0003.14
2022-05-17 09:34:00,,0821.8,5.01,0.00,30.0,28.5,00.0,39.1,31.7,12.3,0000.0,0008.91,0004.03,0003.15
2022-05-17 09:35:00,,0821.8,4.99,0.00,29.9,28.5,00.0,39.1,31.6,12.2,0000.0,0008.88,0004.05,0003.16
2022-05-17 09:36:00,,0821.8,5.01,0.00,29.9,28.5,00.0,39.0,31.6,12.1,0000.0,0008.87,0004.06,0003.15
2022-05-17 09:37:00,,0821.7,5.00,0.00,29.9,28.5,00.0,39.0,31.6,11.9,0000.0,0008.76,0004.06,0003.16
2022-05-17 09:38:00,,0821.8,5.00,0.00,29.9,28.5,00.0,39.0,31.6,12.0,0000.0,0008.79,0004.07,0003.16
2022-05-17 09:39:00,,0821.7,5.00,0.00,29.9,28.5,00.0,39.0,31.6,11.8,0000.0,0008.79,0004.08,0003.15
2022-05-17 09:40:00,,0821.7,5.00,0.00,29.9,28.5,00.0,39.0,31.6,11.8,0000.0,0008.18,0004.06,0003.16
2022-05-17 09:41:00,,0821.7,5.01,0.00,29.9,28.5,00.0,39.0,31.6,11.6,0000.0,0008.29,0004.11,0003.16
2022-05-17 09:42:00,,0821.8,4.99,0.00,29.9,28.5,00.0,39.0,31.6,11.4,0000.0,0008.53,0004.15,0003.18
2022-05-17 09:43:00,,0821.8,4.99,0.00,29.9,28.5,00.0,39.0,31.6,11.2,0000.0,0008.93,0004.16,0003.20
2022-05-17 09:44:00,,0821.8,5.00,0.00,29.9,28.5,00.0,39.0,31.6,11.4,0000.0,0009.28,0004.14,0003.22
2022-05-17 09:45:00,,0821.8,4.99,0.00,29.9,28.5,00.0,39.0,31.6,11.8,0000.0,0009.61,0004.18,0003.23
2022-05-17 09:46:00,,0821.8,4.99,0.00,29.9,28.6,00.0,39.0,31.7,12.4,0000.0,0009.92,0004.20,0003.25
2022-05-17 09:47:00,,0821.9,5.01,0.00,29.9,28.6,00.0,39.0,31.7,12.4,0000.0,0010.03,0004.23,0003.27
2022-05-17 09:48:00,,0821.9,5.00,0.00,30.0,28.6,00.0,39.0,31.7,12.1,0000.0,0010.56,0004.26,0003.29
2022-05-17 09:49:00,,0822.0,5.00,0.00,30.0,28.6,00.0,39.0,31.7,11.9,0000.0,0011.20,0004.26,0003.31
2022-05-17 09:50:00,,0821.8,5.01,0.00,30.0,28.6,00.0,39.0,31.7,11.8,0000.0,0010.99,0004.27,0003.32
2022-05-17 09:51:00,,0822.0,5.00,0.00,30.0,28.6,00.0,39.0,31.7,11.9,0000.0,0010.97,0004.26,0003.34
2022-05-17 09:52:00,,0821.9,4.99,0.00,30.0,28.6,00.0,39.0,31.7,11.6,0000.0,0011.07,0004.21,0003.34
2022-05-17 09:53:00,,0822.0,5.00,0.00,30.0,28.6,00.0,39.0,31.7,11.5,0000.0,0011.09,0004.21,0003.34
2022-05-17 09:54:00,,0822.1,5.00,0.00,30.0,28.6,00.0,39.0,31.7,11.5,0000.0,0011.87,0004.24,0003.34
2022-05-17 09:55:00,,0822.1,4.99,0.00,30.0,28.6,00.0,39.0,31.7,11.8,0000.0,0011.62,0004.29,0003.35
2022-05-17 09:56:00,,0822.1,4.99,0.00,30.0,28.7,00.0,39.0,31.7,12.2,0000.0,0011.59,0004.29,0003.36
2022-05-17 09:57:00,,0822.1,5.01,0.00,30.0,28.7,00.0,39.0,31.7,12.3,0000.0,0011.90,0004.30,0003.36
2022-05-17 09:58:00,,0822.0,5.00,0.00,30.0,28.7,00.0,39.0,31.8,12.2,0000.0,0011.89,0004.29,0003.37
2022-05-17 09:59:00,,0822.0,4.99,0.00,30.0,28.7,00.0,39.1,31.8,11.8,0000.0,0011.80,0004.24,0003.37
